Starlink 5751

operational
NORAD ID: 55576 Int'l Des: 2023-020 Owner: SPXS Country: US Constellation: starlink
LEOCIRCULAR

About Starlink 5751

Description loading...

Live Position

Loading 3D Globe...

Upcoming Passes

Altitude History

Altitude vs Time

uPlot chart will show altitude changes over time

Two-Line Element Set

1 55576U 23020H 25347.55424172 .00040321 00000-0 29985-2 0 9991
2 55576 43.0017 86.5729 0000408 91.6421 268.4468 15.02336497156265
Epoch: Dec 13, 2025 • Age: 17 hours

Current Status

Altitude 573.2 km
Velocity 7.57 km/s
Sub-Earth Point -43.16°S, 172.03°E
Launch Date Feb 12, 2023
Age 2.8 years
Type internet

Technical Details

Classification Payload
Mass 305.00 kg
Dry Mass 290.00 kg
Total Mass 305.00 kg
Length 0.20 m
Diameter 2.80 m
Span 9.00 m
Shape Box + pan
Manufacturer SPXS
Bus Type Starlink
Phase Status In Orbit
Owner/State SPXS/US

Large Constellations

Loading constellations...